FENGYUN 1C DEB, 29942

Orbit data source: Space-Track

FENGYUN 1C DEB, 29942 is space debris in SSO originally from a launch on Mon, 10 May 1999 UTC launched from the Taiyaun Space Center, China (TSC). Fengyun 1C debris stems from the Chinese weather satellite Fengyun-1C, which was intentionally destroyed by a Chinese anti-satellite missile in 2007. This event dramatically increased the amount of space debris, with thousands of trackable fragments posing hazards to satellites and human spaceflight. The Fengyun 1C debris cloud has become a focal point in discussions about space sustainability and the need for international regulations to prevent the creation of new debris.

Loading next visibility...
Identifier
29942, 1999-025JQ
Orbit
SSO
Country
Flag of CNCN / PRC
Related business
Manufacturer
Unknown
Mission
Spacecraft
Bus & Motor
Unknown
Mass
Unknown
Launch date (UTC)
1999-05-10 (27 years ago)
Launch vehicle
Unknown
Launch site
Taiyaun Space Center, China (TSC)
Object type
Payload
Rocket body
Debris
Shape & HBR
Unknown shape, 0.1 m
Radar Cross Section
Medium (>0.1 m² and <1 m²)

Expand to show TLE details & history
Last TLE update: 12 hours ago

TLE from 12 hours ago
0 FENGYUN 1C DEB
1 29942U 99025JQ  26164.08300291  .00001286  00000-0  49777-3 0  9997
2 29942  98.6162 233.4832 0050756 101.0677 259.6220 14.31041914  4750
Epoch: 2026-06-13T01:59Z
TLE epoch observation values (Epoch: 2026-06-13T01:59:31.451Z)
Latitude
0.00001°
Longitude
-57.80104°
Altitude
797.915 km
Speed
7.451 km/s
True Right ascension
15h 33m 55s
True Declination
0° 00' 00"
Sunlit
Object was in full shadow at epoch
Visualization orbit readout
Latitude
Unknown
Longitude
Unknown
Altitude
Unknown
Speed
Unknown
Apparent Right ascension
Unknown
Apparent Declination
Unknown
Sunlit
N/A
Visualization observer readout
Local Sidereal Time
00:00:50
Azimuth
Unknown
Elevation
Unknown
Doppler factor
Unknown
Orbital elements
Apogee altitude
821.749 km
Perigee altitude
749.03 km
Semi-major axis
7,163.527 km
Eccentricity
0.00508
Inclination
98.6162°
RAAN
233.4832°
Arg. of periapsis
101.0677°
True anomaly
259.05056°
Mean anomaly
259.622°
Eccentric anomaly
259.33621°
Mean motion
3.57975 °/min
Orbital period
100.57 mins
BSTAR
0.00049777
Loading maneuver chart data...
Computing Atmospheric mass density...
Loading historical data...
Loading historical data...
Loading historical data...
Loading historical data...
Loading historical data...
Loading historical data...
Loading historical data...

Documentation

Showing up to 5 results
|